Location: Bottom School (historical)
(37.9078°N, 89.3593°W)
Time: 18:45:23
(UTC+00:00)

SL-4 R/B - Pass Details

Date: 09 July 2022
Orbit: 425 x 653 km, 51.6° (Epoch: 15 August)

Event Time Altitude Azimuth Distance (km) Brightness Sun altitude
Exits shadow 04:15:03 35° 3° (N) 721 3.0 -24.6°
Drops below altitude 10° 04:17:36 10° 39° (NE) 1,571 4.6 -24.9°
Sets 04:19:52 0° 46° (NE) 2,475 5.6 -25.1°
